Regional Weather Roundup
Issued by NWS

Home | Current Version | Previous Version | Graphics & Text | Print | Product List | Glossary On
Versions: 1 2 3 4 5 6 7 8 9 10 11 12 13 14 15 16 17 18 19 20 21 22 23 24 25 26 27 28 29 30 31 32 33 34 35 36 37 38 39 40 41 42 43 44 45 46 47 48 49 50
000
ASUS43 KLSX 291107
RWRMO

WEATHER SUMMARY FOR MISSOURI
NATIONAL WEATHER SERVICE SPRINGFIELD MO
600 AM CDT SUN MAY 29 2016

NOTE: "FAIR" INDICATES FEW OR NO CLOUDS BELOW 12,000 FEET WITH NO
       SIGNIFICANT WEATHER AND/OR OBSTRUCTIONS TO VISIBILITY.
       CURRENT SKY AND/OR WEATHER CONDITIONS ARE NOT AVAILABLE FOR
       CHILLICOTHE AND FARMINGTON.

MOZ001>031-035>038-043-044-053-054-291200-
...NORTHERN AND WESTERN MISSOURI...

CITY           SKY/WX    TMP DP  RH WIND       PRES   REMARKS
KANSAS CTY INT CLEAR     59  57  93 SW6       30.05R
KANSAS C DTWN  CLEAR     63  60  90 CALM      30.05R
LEE`S SUMMIT   CLEAR     63  59  87 SW8       30.07R
ST JOSEPH      CLEAR     59  58  96 SW3       30.04R
CHILLICOTHE      N/A     62  59  90 CALM      30.06R
KIRKSVILLE     CLEAR     61  58  90 W3        30.05R

$$
MOZ066>068-077>081-088>096-101>105-291200-
...SOUTHWEST MISSOURI...

CITY           SKY/WX    TMP DP  RH WIND       PRES   REMARKS
SPRINGFIELD    CLEAR     60  58  92 S3        30.09R FOG
JOPLIN         CLEAR     63  62  97 S6        30.09R

$$
MOZ032>034-039>042-045>050-055>058-069>072-291200-
...CENTRAL MISSOURI...

CITY           SKY/WX    TMP DP  RH WIND       PRES   REMARKS
COLUMBIA       CLEAR     62  61  96 S3        30.07R
JEFFERSON CITY CLEAR     62  61  96 CALM      30.07R
ROLLA          CLEAR     61  59  93 W5        30.07R
SEDALIA        CLEAR     64  61  90 SW6       30.08R
WHITEMAN AFB   CLEAR     60  60  99 SW6       30.06R
WARRENSBURG    CLEAR     59  59 100 CALM      30.07R

$$
MOZ051-052-059>065-291200-
...EAST CENTRAL MISSOURI...

CITY           SKY/WX    TMP DP  RH WIND       PRES   REMARKS
ST LOUIS INTL  PTCLDY    67  60  78 CALM      30.06R
SPIRIT OF STL  CLEAR     62  61  96 CALM      30.05R
ST CHARLES     CLEAR     64  62  93 CALM      30.04R

$$
MOZ072>076-082>087-097>100-106>115-291200-
...SOUTH CENTRAL AND SOUTHEAST MISSOURI...

CITY           SKY/WX    TMP DP  RH WIND       PRES   REMARKS
CAPE GIRARDEAU FOG       65  65 100 CALM      30.07R VSB<1/4
FARMINGTON     CLEAR     64  63  96 CALM      30.09R FOG
POPLAR BLUFF   FOG       66  65  96 CALM      30.07R VSB<1/4
WEST PLAINS    CLEAR     63  61  93 CALM      30.11R

$$



USA.gov is the U.S. government's official web portal to all federal, state and local government web resources and services.